Probability
3 1 0 0 0 0 0 0 0 0 0 0 0 0 0 0 0 0 0 0 0 0 0 0 0 0 0 0 0 0 0 0 0 0 0 0 0 0 0 0 0 0 0
3 2 0 0 0 0 0 0 0 0 0 0 0 0 0 0 0 0 0 0 0 0 0 0 0 0 0 0 0 0 0 0 0 0 0 0 0 0 0 0 0 0 0
3 2 1 0 0 0 0 0 0 0 0 0 0 0 0 0 0 0 0 0 0 0 0 0 0 0 0 0 0 0 0 0 0 0 0 0 0 0 0 0 0 0 0
1 2 2 1 0 0 0 0 0 0 0 0 0 0 0 0 0 0 0 0 0 0 0 0 0 0 0 0 0 0 0 0 0 0 0 0 0 0 0 0 0 0 0
1 1 2 1 0 0 0 0 0 0 0 0 0 0 0 0 0 0 0 0 0 0 0 0 0 0 0 0 0 0 0 0 0 0 0 0 0 0 0 0 0 0 0
2 2 2 1 0 0 0 0 0 0 0 0 0 0 0 0 0 0 0 0 0 0 0 0 0 0 0 0 0 0 0 0 0 0 0 0 0 0 0 0 0 0 0
3 2 2 1 0 0 0 0 0 0 0 0 0 0 0 0 0 0 0 0 0 0 0 0 0 0 0 0 0 0 0 0 0 0 0 0 0 0 0 0 0 0 0
3 3 2 1 0 0 0 0 0 0 0 0 0 0 0 0 0 0 0 0 0 0 0 0 0 0 0 0 0 0 0 0 0 0 0 0 0 0 0 0 0 0 0
3 3 3 2 1 1 0 0 0 0 0 0 0 0 0 0 0 0 0 0 0 0 0 0 0 0 0 0 0 0 0 0 0 0 0 0 0 0 0 0 0 0 0
3 3 3 3 3 2 1 0 0 0 0 0 0 0 0 0 0 0 0 0 0 0 0 0 0 0 0 0 0 0 0 0 0 0 0 0 0 0 0 0 0 0 0
3 3 3 3 3 2 1 0 0 0 0 0 0 0 0 0 0 0 0 0 0 0 0 0 0 0 0 0 0 0 0 0 0 0 0 0 0 0 0 0 0 0 0
3 3 3 3 3 2 1 0 0 0 0 0 0 0 0 0 0 0 0 0 0 0 0 0 0 0 0 0 0 0 0 0 0 0 0 0 0 0 0 0 0 0 0
3 3 3 2 2 1 0 0 0 0 0 0 0 0 0 0 0 0 0 0 0 0 0 0 0 0 0 0 0 0 0 0 0 0 0 0 0 0 0 0 0 0 0
3 3 2 2 2 1 0 0 0 0 0 0 0 0 0 0 0 0 0 0 0 0 0 0 0 0 0 0 0 0 0 0 0 0 0 0 0 0 0 0 0 0 0
2 1 1 1 1 0 0 0 0 0 0 0 0 0 0 0 0 0 0 0 0 0 0 0 0 0 0 0 0 0 0 0 0 0 0 0 0 0 0 0 0 0 0
1 0 0 0 0 0 0 0 0 0 0 0 0 0 0 0 0 0 0 0 0 0 0 0 0 0 0 0 0 0 0 0 0 0 0 0 0 0 0 0 0 0 0
0 0 0 0 0 0 0 0 0 0 0 0 0 0 0 0 0 0 0 0 0 0 0 0 0 0 0 0 0 0 0 0 0 0 0 0 0 0 0 0 0 0 0
0 0 0 0 0 0 0 0 0 0 0 0 0 0 0 0 0 0 0 0 0 0 0 0 0 0 0 0 0 0 0 0 0 0 0 0 0 0 0 0 0 0 0
0 0 0 0 0 0 0 0 0 0 0 0 0 0 0 0 0 0 0 0 0 0 0 0 0 0 0 0 0 0 0 0 0 0 0 0 0 0 0 0 0 0 0
0 0 0 0 0 0 0 0 0 0 0 0 0 0 0 0 0 0 0 0 0 0 0 0 0 0 0 0 0 0 0 0 0 0 0 0 0 0 0 0 0 0 0
0 0 0 0 0 0 0 0 0 0 0 0 0 0 0 0 0 0 0 0 0 0 0 0 0 0 0 0 0 0 0 0 0 0 0 0 0 0 0 0 0 0 0
0 0 0 0 0 0 0 0 0 0 0 0 0 0 0 0 0 0 0 0 0 0 0 0 0 0 0 0 0 0 0 0 0 0 0 0 0 0 0 0 0 0 0
0 0 0 0 0 0 0 0 0 0 0 0 0 0 0 0 0 0 0 0 0 0 0 0 0 0 0 0 0 0 0 0 0 0 0 0 0 0 0 0 0 0 0
0 0 0 0 0 0 0 0 0 0 0 0 0 0 0 0 0 0 0 0 0 0 0 0 0 0 0 0 0 0 0 0 0 0 0 0 0 0 0 0 0 0 0
0 0 0 0 0 0 0 0 0 0 0 0 0 0 0 0 0 0 0 0 0 0 0 0 0 0 0 0 0 0 0 0 0 0 0 0 0 0 0 0 0 0 0
0 0 0 0 0 0 0 0 0 0 0 0 0 0 0 0 0 0 0 0 0 0 0 0 0 0 0 0 0 0 0 0 0 0 0 0 0 0 0 0 0 0 0
Wind_Speed
2 1 1 1 1 1 1 1 1 2 2 2 2 2 2 1 1 1 1 3 3 3 4 4 3 3 3 4 4 4 4 5 5 4 4 4 5 5 5 5 4 4 3
2 2 1 1 1 1 1 1 1 1 1 1 1 1 1 1 1 1 1 2 3 3 3 4 4 3 3 3 3 4 4 4 4 5 4 5 5 6 6 5 4 4 4
2 2 2 1 0 1 1 1 1 1 1 1 1 1 1 1 1 1 1 1 1 3 4 4 4 4 3 3 3 3 4 4 4 4 4 5 5 5 6 6 5 5 5
2 2 2 1 0 1 1 1 1 1 1 1 1 1 1 1 0 1 1 1 1 1 2 4 4 5 4 3 3 3 3 4 4 4 4 4 5 5 6 6 6 6 5
2 2 2 1 1 2 1 1 1 1 1 1 1 1 1 1 1 0 1 1 1 1 1 3 4 5 5 4 3 3 3 4 4 4 4 4 5 5 6 7 6 6 6
2 2 2 2 2 2 1 1 1 1 1 0 1 1 1 1 1 0 0 1 1 1 1 2 2 3 5 5 4 4 4 4 4 4 4 4 5 5 6 7 7 6 7
2 2 2 2 2 2 2 1 1 1 1 1 1 1 2 1 0 0 0 0 1 1 1 1 1 1 2 5 5 4 4 4 4 4 4 4 5 6 7 7 7 7 7
2 3 2 2 3 2 2 2 2 1 1 1 1 1 2 2 2 1 1 0 1 1 2 2 2 1 1 1 4 6 6 6 5 5 5 5 5 6 7 7 7 8 8
2 2 3 2 3 3 3 3 3 2 2 0 1 2 1 1 2 2 1 1 1 1 2 2 2 2 1 1 2 5 6 6 6 6 6 6 6 7 7 7 7 8 8
2 2 3 2 3 3 3 3 3 2 3 2 0 0 1 1 1 2 2 1 2 2 3 2 2 2 2 1 3 5 6 7 7 7 7 7 7 7 7 8 8 8 9
1 1 3 3 3 3 3 3 3 3 3 3 2 1 0 0 0 1 3 3 3 2 2 3 2 2 2 2 2 4 6 7 7 7 7 8 8 7 8 8 8 9 9
1 1 1 3 3 3 4 4 4 4 3 3 2 2 2 2 1 1 3 3 3 3 3 2 2 2 2 2 3 6 6 7 8 8 7 7 7 7 8 9 9 9 9
1 2 2 2 3 3 4 4 4 4 4 4 3 2 2 2 2 1 2 3 3 3 3 2 1 1 2 2 3 6 6 8 8 8 8 7 7 7 8 9 9 9 10
3 3 3 3 3 3 3 4 4 4 4 4 4 3 2 2 2 2 2 2 3 3 3 3 1 1 2 3 4 6 4 8 9 9 8 8 8 8 8 9 9 9 10
2 3 3 3 2 3 3 4 4 4 4 4 4 4 3 2 2 2 2 3 3 3 5 3 2 2 2 3 5 4 4 8 10 9 9 9 8 8 8 9 9 9 9
2 2 2 2 2 2 3 3 3 4 4 4 4 4 4 3 2 2 2 2 3 3 5 3 3 3 4 4 6 5 5 9 9 9 10 9 9 9 9 9 9 10 10
2 2 2 2 2 2 3 3 3 4 5 4 4 4 4 3 3 2 2 2 3 3 5 5 3 3 4 5 5 4 4 4 5 9 10 10 10 10 10 9 9 10 10
2 2 3 3 3 3 3 3 3 3 4 5 4 4 5 4 4 3 3 4 3 3 4 7 5 3 4 4 5 5 5 4 4 8 10 10 10 10 10 9 9 9 10
2 2 2 3 3 3 3 3 3 3 3 4 4 5 5 5 5 4 4 4 3 3 3 5 5 3 3 3 4 5 4 4 4 6 8 8 9 9 9 9 9 9 9
2 2 2 3 3 3 3 3 3 3 3 4 4 4 5 6 6 5 5 5 4 4 3 4 5 4 3 3 3 4 5 4 4 4 5 6 7 9 9 10 9 9 9
1 2 2 2 2 3 3 4 4 4 4 4 4 4 5 6 7 6 5 4 4 4 3 4 4 4 4 3 3 3 5 5 4 2 3 4 4 4 5 7 9 9 9
2 1 2 2 2 3 4 5 4 3 4 4 5 4 4 5 6 8 8 8 7 6 5 5 5 5 5 4 4 3 4 4 4 2 3 5 3 4 4 4 8 9 9
2 2 2 2 3 4 5 5 5 3 4 4 4 4 4 4 5 5 6 7 7 8 9 7 7 7 6 5 4 5 5 5 6 4 3 5 3 4 4 5 8 9 9
2 2 2 2 3 4 5 5 5 3 3 4 4 4 5 5 5 5 5 5 5 6 7 6 7 7 6 5 5 5 5 5 4 3 2 4 3 3 4 4 7 8 8
2 2 2 2 3 4 5 5 5 3 3 4 4 4 5 5 7 7 5 5 6 5 6 8 8 8 8 8 5 2 2 3 4 3 1 2 2 3 4 4 4 7 7
3 2 2 2 3 4 5 6 5 3 3 3 3 4 5 7 8 7 5 5 6 5 4 4 5 6 5 5 6 4 4 4 3 3 1 1 1 2 3 3 3 3 4
Wind_Direction
136 131 104 65 45 57 71 67 60 52 48 50 61 73 68 68 66 47 21 19 22 34 37 33 32 32 33 32 29 25 19 20 18 14 4 356 356 347 347 343 335 330 334
146 146 128 105 71 64 92 107 79 70 52 48 50 62 65 69 78 66 40 20 18 15 22 22 17 18 22 24 21 17 8 6 6 5 6 359 352 347 343 331 331 330 324
146 148 145 136 127 102 82 76 63 66 56 42 34 13 34 54 79 62 37 25 10 8 8 12 10 5 3 5 3 3 355 357 0 358 3 1 353 345 344 341 332 322 322
141 148 141 142 119 106 99 95 84 77 52 33 0 340 347 7 34 29 28 30 28 4 352 358 359 355 349 345 348 350 347 350 349 348 351 349 347 342 338 333 331 323 318
151 156 147 145 130 112 96 103 95 118 90 14 334 329 325 313 312 360 26 20 23 14 341 342 348 345 343 337 336 341 346 346 341 339 340 341 339 333 332 331 325 323 321
150 154 148 139 132 123 108 98 110 82 109 9 346 342 322 307 302 274 283 346 359 6 351 340 334 327 330 330 327 329 334 339 334 325 324 329 332 329 325 324 326 320 316
149 147 152 146 140 142 149 139 121 111 70 45 58 9 348 329 291 356 353 358 360 345 338 333 328 322 317 323 320 320 318 322 323 326 323 320 321 322 320 319 316 315 315
161 148 154 164 160 152 141 138 130 130 120 67 98 95 356 338 340 325 320 228 297 325 325 322 318 310 313 313 317 320 312 310 311 315 313 309 310 313 314 316 313 312 312
165 154 156 168 168 163 167 169 161 142 166 138 94 126 144 246 312 312 294 301 321 313 302 302 303 301 300 294 300 312 315 308 304 303 304 301 302 306 309 309 309 309 309
176 169 159 172 175 175 175 179 172 166 164 175 184 15 148 160 184 303 307 311 311 296 297 308 304 297 298 294 303 312 315 313 308 303 300 296 295 299 301 305 305 304 303
207 185 175 174 182 183 184 181 175 173 173 180 183 180 145 32 166 226 280 302 319 296 296 288 281 282 291 296 290 301 314 313 311 304 299 297 295 296 299 302 301 300 298
244 231 209 188 187 189 191 190 184 183 183 179 188 182 180 187 205 221 250 269 292 298 301 282 275 280 288 296 302 312 311 311 310 304 298 297 296 296 298 298 297 296 294
231 228 217 215 204 198 197 188 184 191 193 188 196 209 215 228 217 222 234 266 285 293 293 286 265 290 312 318 306 313 308 311 307 303 297 294 292 293 296 296 293 293 291
223 218 211 216 217 206 202 192 189 196 197 199 207 209 221 237 222 213 215 231 277 287 280 273 288 270 303 303 303 311 302 307 302 299 296 291 288 289 290 291 291 291 291
213 204 203 216 221 214 208 198 200 200 199 204 209 211 219 232 227 231 220 209 219 264 277 275 280 285 302 301 305 297 291 295 300 296 293 290 286 285 286 286 287 288 289
210 202 202 209 217 221 217 209 215 208 205 212 212 209 221 231 225 229 229 235 229 232 259 267 268 291 299 303 303 299 289 295 293 297 292 290 289 286 283 281 283 285 287
207 209 207 207 213 223 220 217 225 218 215 221 221 216 227 224 223 229 231 235 242 238 257 277 278 288 291 295 303 298 290 285 285 292 293 290 285 285 283 282 282 283 285
217 213 208 209 219 228 227 223 230 233 226 224 225 224 231 226 225 228 229 235 241 244 250 272 283 286 282 285 291 296 300 294 284 287 291 289 287 286 284 283 283 285 286
233 228 211 214 224 234 235 236 235 237 242 238 233 231 233 225 231 231 232 237 242 254 252 260 276 280 284 292 302 304 302 293 289 286 287 286 288 290 287 284 283 285 283
231 238 232 226 226 232 236 239 244 242 242 250 245 242 239 229 230 230 233 237 241 250 256 258 270 281 286 292 292 300 307 306 300 302 293 295 293 291 285 283 283 284 280
246 238 233 239 240 233 231 230 231 239 241 252 252 246 249 249 246 241 238 234 234 242 251 260 268 280 282 287 283 290 292 307 298 281 297 294 291 288 283 280 280 278 276
267 248 235 236 245 251 260 263 256 245 246 249 257 256 254 251 257 259 258 252 243 239 246 250 263 264 275 278 284 280 290 299 293 276 301 296 289 285 284 269 275 278 276
275 256 247 240 255 263 271 272 272 255 252 251 252 260 262 256 254 251 258 261 257 255 248 244 251 257 263 263 267 270 265 272 276 277 289 281 276 280 286 278 275 276 276
284 267 259 251 259 273 279 280 283 260 255 255 253 255 262 264 257 255 253 253 255 254 256 250 246 252 255 254 244 251 260 277 288 282 261 267 280 282 297 285 274 276 278
294 276 265 261 265 279 284 284 285 261 259 263 263 261 262 262 266 268 256 254 262 266 271 267 267 268 270 271 271 256 252 261 282 282 243 249 283 305 296 283 284 285 284
289 283 282 276 268 274 282 284 284 262 263 267 268 265 265 270 273 273 254 247 255 263 268 278 279 280 273 268 267 242 232 241 268 272 237 241 275 321 305 289 296 296 288